Regional Weather Roundup
Issued by NWS Goodland, KS

Home | Current Version | Previous Version | Graphics & Text | Print | Product List | Glossary On
Versions: 1 2 3 4 5 6 7 8 9 10 11 12 13 14 15 16 17 18 19 20 21 22 23 24 25 26 27 28 29 30 31 32 33 34 35 36 37 38 39 40 41 42 43 44 45 46 47 48 49 50
000
ASUS43 KGLD 302008
RWRGLD

GOODLAND FORECAST AREA HOURLY WEATHER ROUNDUP
NATIONAL WEATHER SERVICE GOODLAND KS
200 PM MDT THU OCT 30 2014

...OFFICIAL OBSERVATIONS...

CITY           SKY/WX    TMP DP  RH WIND       PRES   REMARKS
GOODLAND KS    SUNNY     66  27  23 N12       30.29F
HILL CITY KS   SUNNY     69  30  23 NW20G28   30.21F
IMPERIAL NEB   SUNNY     64  30  27 N21       30.27F
MCCOOK NEB     SUNNY     68  29  23 N20       30.23F
AKRON CO       SUNNY     59  28  30 CALM      30.33F
BURLINGTON CO  SUNNY     63  25  23 N14G21    30.31F
LIMON CO       SUNNY     60  25  26 N3        30.34F
$$

...UNOFFICIAL OBSERVATIONS...

CITY           SKY/WX    TMP DP  RH WIND       PRES   REMARKS
COLBY KS       SUNNY     66  34  30 NW13G22   30.27S
NORTON KS      SUNNY     68  21  17 N20G26    30.20F
SHARON SPRINGS   N/A     66  29  25 N14G23      N/A
TRIBUNE KS     SUNNY     66  37  34 N12G22    30.30
TRENTON NEB      N/A     66  32  28 NW15        N/A
YUMA CO          N/A     62  30  30 N13         N/A
$$



USA.gov is the U.S. government's official web portal to all federal, state and local government web resources and services.